Location: Nairn
(57.5833°N, 3.8667°W)
Time: 23:08:33
(UTC+00:00)

Tiros 1 - Pass Details

Date: 02 December 2020
Orbit: 630 x 663 km, 48.4° (Epoch: 22 January)

Event Time Altitude Azimuth Distance (km) Brightness Sun altitude
Rises 19:50:02 0° 266° (W) 2,990 11.6 -32.5°
Reaches altitude 10° 19:53:46 10° 237° (WSW) 2,068 10.2 -33.0°
Enters shadow 19:55:12 12° 220° (SW) 1,924 9.8 -33.2°
Maximum altitude 19:55:39 12° 214° (SSW) 1,914 - -33.2°
Drops below altitude 10° 19:57:32 10° 190° (S) 2,057 - -33.5°
Sets 20:01:13 0° 161° (SSE) 2,955 - -34.0°
